This is the latest recevied weather packets stored in our database for station/object OK1VCF-8. If no packets are shown the sender has not sent any weather packets the latest 10 day(s).
| Time | Temp. | Humidity | Pressure | Rain* | Wind** | Luminosity | Snow |
|---|---|---|---|---|---|---|---|
| 1777724501 | 24.44° C | 24% | 1023 hPa | - | - | - | - |
| 1777724022 | 24.44° C | 24% | 1023 hPa | - | - | - | - |
| 1777723547 | 23.33° C | 25% | 1023.2 hPa | - | - | - | - |
| 1777723069 | 23.33° C | 26% | 1023.2 hPa | - | - | - | - |
| 1777722589 | 23.33° C | 25% | 1023.4 hPa | - | - | - | - |
| 1777722117 | 22.78° C | 24% | 1023.5 hPa | - | - | - | - |
| 1777721658 | 23.33° C | 26% | 1023.6 hPa | - | - | - | - |
| 1777721204 | 23.33° C | 26% | 1023.8 hPa | - | - | - | - |
| 1777720592 | 22.78° C | 27% | 1023.8 hPa | - | - | - | - |
| 1777720151 | 22.22° C | 27% | 1024 hPa | - | - | - | - |
| 1777719712 | 22.22° C | 29% | 1024 hPa | - | - | - | - |
| 1777719272 | 21.67° C | 30% | 1024 hPa | - | - | - | - |
| 1777718833 | 22.22° C | 28% | 1024.2 hPa | - | - | - | - |
| 1777718393 | 22.22° C | 30% | 1024.4 hPa | - | - | - | - |
| 1777717955 | 22.22° C | 30% | 1024.5 hPa | - | - | - | - |
| 1777717514 | 22.22° C | 32% | 1024.4 hPa | - | - | - | - |
| 1777717076 | 21.67° C | 32% | 1024.6 hPa | - | - | - | - |
| 1777716636 | 21.11° C | 30% | 1024.7 hPa | - | - | - | - |
| 1777716196 | 22.22° C | 31% | 1024.7 hPa | - | - | - | - |
| 1777715754 | 22.22° C | 34% | 1024.9 hPa | - | - | - | - |
| 1777715315 | 21.11° C | 36% | 1024.9 hPa | - | - | - | - |
| 1777714877 | 21.11° C | 36% | 1025.1 hPa | - | - | - | - |
| 1777714436 | 21.11° C | 37% | 1025.2 hPa | - | - | - | - |
| 1777713831 | 20° C | 38% | 1025.2 hPa | - | - | - | - |
| 1777713394 | 20° C | 38% | 1025.2 hPa | - | - | - | - |
* Rain since midnight (hover to see other rain measurements)
** Current wind speed in m/s (hover to see current wind gust speed)